TIME,DELAY(SENSOR),PRES,T(CTD),SAL,OXYGEN,RAWTEMP,T(OPTODE),TCPHASE,FLUOR,BETA(BETA700),BETA(BETA412),BETA(BETA440),CDOM,C(CSC),ED(ED412.40),ED(ED444.00),ED(ED489.70),ED(ED554.30),LU(LU411.80),LU(LU443.40),LU(LU489.60),LU(LU554.10),COMP,TILTX,TILTX(TILTY),CHECK
1379367465,5806,497.2000122070312500,6.9569001197814940,34.1328010559082000,83.1395263671875000,588.9929809570312000,6.9392600059509280,48.3800697326660160,52,105,85,80,77,15271,2147746093,2147426048,2148011693,2147874834,2147627437,2147075547,2148247817,2147199542,3188,4,13,35677
1379367580,5809,486.1199951171875000,7.0602998733520510,34.1245994567871100,91.5319976806640600,585.4138793945312000,7.0544490814208980,47.3783302307128900,52,103,87,80,77,15273,2147742555,2147426633,2148010368,2147874889,2147626057,2147077641,2148249344,2147201371,2222,3,13,5301
1379367697,5807,474.2300109863281000,7.2982001304626465,34.1138000488281250,98.5310668945312500,578.3900146484375000,7.2801651954650880,46.5121498107910160,51,103,86,80,76,15269,2147742592,2147424713,2148008109,2147875264,2147625910,2147081362,2148244406,2147204306,1140,4,13,63095
1379367800,5807,463.3699951171875000,7.4977002143859860,34.1072998046875000,105.6101989746093800,571.5161743164062000,7.5006279945373535,45.6607017517089840,51,102,83,80,76,15272,2147745060,2147425773,2148008594,2147873435,2147623085,2147076717,2148242925,2147202377,3455,4,13,14496
1379367903,5804,452.3399963378906000,7.7203998565673830,34.1006011962890600,115.4115982055664000,564.9326171875000000,7.7113928794860840,44.5746002197265600,51,103,87,79,75,15268,2147741915,2147424320,2148007661,2147871204,2147620059,2147080630,2148239460,2147202761,3042,3,13,51697
1379368032,5808,440.8200073242187500,7.9565000534057620,34.0983009338378900,123.6696014404296900,557.6765136718750000,7.9432559013366700,43.6643905639648440,50,106,84,79,75,15269,2147738368,2147423542,2148007442,2147876672,2147620690,2147081344,2148238820,2147201846,2024,4,13,8047
1379368198,5810,429.9500122070312500,8.1469001770019530,34.0842018127441400,141.7823028564453000,551.8931884765625000,8.1277351379394530,41.9535598754882800,50,103,86,78,74,15272,2147736512,2147424484,2148007213,2147873444,2147621037,2147084608,2148234304,2147205238,1273,3,13,4338
1379368369,5810,418.2099914550781000,8.3641004562377930,34.0961990356445300,146.9358978271484400,545.1248779296875000,8.3432846069335940,41.4067497253418000,50,104,88,80,73,15272,2147738560,2147422043,2148005129,2147874331,2147618605,2147089490,2148235136,2147204827,18,4,13,56439
1379368508,5808,407.5599975585937500,8.7237997055053710,34.1002006530761700,153.2375030517578000,533.4818725585938000,8.7132148742675780,40.6941604614257800,50,105,86,79,73,15272,2147736722,2147425088,2148006747,2147872310,2147617892,2147089901,2148235739,2147204077,249,3,13,8119
1379368649,5804,396.7600097656250000,9.1267004013061520,34.1080017089843750,159.1808929443359400,521.0654296875000000,9.1065521240234380,40.0115509033203100,50,104,87,80,72,15267,2147736292,2147426944,2148007780,2147870582,2147613549,2147093440,2148235136,2147206354,3205,4,13,47092
1379368776,5810,385.5899963378906000,9.3364000320434570,34.1091003417968750,168.0146026611328000,513.0336914062500000,9.3603639602661130,39.2072715759277340,50,105,85,80,72,15267,2147736630,2147423872,2148004077,2147873426,2147614409,2147094317,2148222683,2147204626,2916,4,13,13347
1379368905,5808,373.7699890136719000,9.6176996231079100,34.1160011291503900,177.4550933837890600,505.1308898925781000,9.6096448898315430,38.3933601379394500,49,106,85,79,71,15267,2147733430,2147423232,2148005686,2147875428,2147610688,2147097024,2148222738,2147203520,2319,3,13,49090
1379369020,5809,362.7200012207031000,9.9215002059936520,34.1208000183105500,184.6508026123047000,495.2933959960937500,9.9193353652954100,37.7326583862304700,50,104,89,79,70,15269,2147734080,2147425453,2148006884,2147872173,2147615122,2147099547,2148224923,2147205440,1403,4,13,31380
1379369123,5810,352.2099914550781000,10.0826997756958000,34.1268005371093750,189.6047058105468800,490.1394042968750000,10.0813198089599610,37.3173408508300800,50,105,85,78,70,15267,2147733961,2147426011,2148010322,2147872832,2147610368,2147102317,2148225526,2147206875,1156,3,13,41527
1379369228,5807,341.0700073242187500,10.3893995285034180,34.1352996826171900,193.5527954101562500,480.0079956054687500,10.3992300033569340,36.8921585083007800,49,105,86,81,68,15267,2147731510,2147426112,2148008457,2147874724,2147604480,2147103990,2148219794,2147209289,2323,3,13,18652
1379369343,5807,329.4899902343750000,10.7496004104614260,34.1482009887695300,197.3791961669922000,467.8189086914062500,10.7808198928833000,36.4479217529296900,49,103,87,80,70,15269,2147728786,2147429092,2148013284,2147875017,2147606299,2147099382,2148221833,2147208548,1849,2,13,48674
1379369470,5809,318.6499938964844000,11.0708999633789060,34.1637992858886700,204.0500030517578000,458.5288085937500000,11.0710496902465820,35.8860015869140600,49,103,87,79,68,15269,2147729636,2147429595,2148017261,2147873554,2147604041,2147104886,2148223515,2147207085,1286,3,14,44641
1379369611,5809,307.7399902343750000,11.4996004104614260,34.1734008789062500,203.5335998535156200,445.1608886718750000,11.4877796173095700,35.6995506286621100,48,103,85,79,68,15269,2147729554,2147428726,2148023149,2147871158,2147600402,2147114486,2148225837,2147207771,3491,3,14,16897
1379369750,5806,296.7999877929687500,11.7604999542236330,34.1833992004394500,203.9436950683593800,434.9100952148437500,11.8066596984863280,35.5094490051269500,48,103,86,79,69,15266,2147724644,2147429833,2148030875,2147873627,2147602541,2147110281,2148223762,2147207890,2794,3,13,600
1379369903,5810,282.0599975585937500,12.6031999588012700,34.2239990234375000,207.6808013916015600,410.8226928710937500,12.5538396835327150,34.9047508239746100,48,107,86,78,69,15265,2147726098,2147437942,2148045824,2147872886,2147599862,2147123721,2148233042,2147207250,2952,4,13,60751
1379370004,5808,271.0700073242187500,12.9314002990722660,34.2490005493164060,211.8211059570312500,399.2948913574219000,12.9104499816894530,34.4851303100585940,50,105,87,79,68,15262,2147720896,2147442761,2148064722,2147871332,2147593883,2147123401,2148237924,2147210386,2586,3,13,16868
1379370107,5807,259.9400024414062500,13.3577995300292970,34.2789001464843750,210.9360961914062500,383.8965148925781000,13.3858900070190430,34.2980918884277340,48,107,85,79,66,15262,2147722934,2147453092,2148093248,2147872201,2147593965,2147141421,2148247323,2147211529,2113,2,14,36491
1379370236,5806,248.8699951171875000,14.0431995391845700,34.3389015197753900,212.2212982177734400,363.2538146972656000,14.0218000411987300,33.9100189208984400,48,106,85,77,68,15264,2147722020,2147465261,2148123638,2147872950,2147594523,2147144091,2148265645,2147217371,1432,3,14,36914
1379370426,5808,238.3200073242187500,14.8481998443603520,34.4235000610351560,213.6956024169922000,335.1518859863281000,14.8851699829101560,33.4069595336914060,49,103,86,81,66,15261,2147725174,2147482770,2148169554,2147875766,2147587017,2147157915,2148281124,2147215917,3480,2,14,54139
1379370631,5808,227.0500030517578000,16.8097000122070300,34.6377983093261700,211.5606994628906200,273.4876098632812500,16.7729492187500000,32.6299705505371100,50,107,85,80,64,15256,2147716452,2147504969,2148234788,2147875602,2147582774,2147189723,2148300306,2147217124,2963,3,14,55290
1379370814,5806,216.1199951171875000,17.6158008575439450,34.7438011169433600,210.1967926025390600,246.1779022216797000,17.6072807312011720,32.3190612792968750,51,106,85,79,65,15248,2147722496,2147546002,2148327533,2147873216,2147579062,2147217746,2148340781,2147221220,1511,2,15,21129
1379370957,5806,204.7500000000000000,18.2143993377685550,34.8227996826171900,210.4942932128906200,226.1623992919922000,18.2185306549072270,32.0227394104003900,53,107,85,80,64,15246,2147732955,2147609801,2148470610,2147875392,2147580608,2147268635,2148408978,2147227986,2921,2,15,43004
1379371048,5809,196.6999969482422000,18.6746997833251950,34.8829994201660160,209.6714935302734400,207.8061981201172000,18.7791309356689450,31.8141899108886720,55,110,86,81,63,15240,2147750208,2147680384,2148622866,2147874422,2147585216,2147301824,2148476937,2147235812,2009,2,15,25776
1379371127,5805,189.7899932861328000,19.1224994659423830,34.9399986267089840,210.3085021972656200,196.7545013427734400,19.1167297363281250,31.6276397705078120,59,109,90,81,63,15237,2147771236,2147761618,2148785938,2147873344,2147590445,2147358244,2148550171,2147235904,1256,2,15,18755
1379371182,5808,185.2200012207031200,19.1970005035400400,34.9527015686035160,211.1228027343750000,194.2825927734375000,19.1922607421875000,31.5491504669189450,59,110,84,80,63,15236,2147791853,2147827254,2148929517,2147875044,2147593216,2147398921,2148613824,2147243547,1194,2,14,54276
1379371237,5810,180.6399993896484400,19.2607994079589840,34.9607009887695300,211.2785034179687500,191.1172027587890600,19.2889709472656250,31.4977607727050780,60,110,86,80,62,15235,2147813385,2147897700,2149049618,2147873435,2147606656,2147434569,2148674048,2147251273,767,3,14,49323
1379371292,5810,176.2100067138672000,19.5664005279541000,34.9990005493164060,211.7451934814453000,182.5086059570312500,19.5520706176757800,31.3553504943847660,65,113,84,81,63,15231,2147831186,2147919899,2149059099,2147875565,2147609910,2147451849,2148680548,2147253869,930,2,15,11331
1379371347,5805,172.0099945068359400,19.8733005523681640,35.0341987609863300,212.1183929443359400,172.9459991455078000,19.8444194793701170,31.2055797576904300,69,114,87,80,63,15222,2147886939,2148111936,2149461275,2147877376,2147634093,2147557595,2148849865,2147261988,457,3,14,47291
1379371402,5805,168.1499938964843800,20.0438003540039060,35.0616989135742200,213.2559051513672000,167.4228973388672000,20.0133304595947270,31.0701503753662100,70,114,86,81,62,15220,2147941659,2148238034,2149681810,2147882294,2147656502,2147622857,2148951981,2147269467,902,2,15,44098
1379371487,5808,162.7299957275390600,20.2784996032714840,35.0898017883300800,213.9929046630859400,159.0413970947265600,20.2697601318359380,30.9187297821044920,76,117,89,80,63,15219,2148030966,2148445851,2150039862,2147882678,2147689984,2147736978,2149103076,2147280301,1152,2,15,6532
1379371554,5810,159.3099975585937500,20.3875007629394530,35.1035003662109400,215.1773986816406200,155.2230987548828000,20.3866195678710940,30.8048992156982420,81,115,87,81,62,15216,2148101677,2148613586,2150326281,2147884553,2147717860,2147821293,2149232941,2147292717,299,2,15,44793
1379371633,5809,155.6900024414062500,20.6060009002685550,35.1282997131347660,215.8480987548828000,148.5894012451172000,20.5897102355957030,30.6812000274658200,83,117,87,82,61,15213,2148193572,2148792896,2150637778,2147885147,2147750765,2147916342,2149357010,2147304045,3409,2,15,36804
1379371724,5805,151.6900024414062500,20.7234992980957030,35.1400985717773440,216.7075958251953000,143.1596984863281200,20.7560100555419920,30.5643806457519530,83,122,89,80,61,15202,2148333366,2149062482,2151078500,2147887515,2147803620,2148057600,2149546157,2147320173,3373,2,16,51425
1379371817,5808,147.9400024414062500,20.9246997833251950,35.1668014526367200,218.4841003417968800,137.8614959716797000,20.9183406829834000,30.4022006988525400,93,117,89,83,61,15195,2148486948,2149345444,2151523840,2147894866,2147864704,2148186880,2149733056,2147330870,2942,2,15,62848
1379371920,5806,143.6199951171875000,21.2252998352050780,35.1916007995605500,219.4956970214843800,129.6333007812500000,21.1705799102783200,30.2421894073486330,97,119,90,81,62,15194,2148738514,2149805988,2152253897,2147902400,2147951716,2148402404,2150012150,2147355017,2036,2,15,29144
1379372011,5809,139.9700012207031200,21.3560009002685550,35.2075996398925800,220.9512939453125000,123.7281036376953100,21.3517208099365230,30.0906391143798830,106,120,90,82,60,15178,2148981842,2150246518,2152953408,2147910710,2148047561,2148602788,2150289188,2147377627,1077,2,16,27138
1379372116,5808,135.4400024414062500,21.4692993164062500,35.2183990478515600,222.3162994384765600,120.0491027832031200,21.4646205902099600,29.9737606048584000,110,123,88,82,62,15172,2149333540,2150866331,2153904109,2147923392,2148176173,2148881865,2150654683,2147408374,1092,2,15,61581
1379372207,5808,131.5299987792968800,21.5627994537353500,35.2268981933593750,223.3088989257812500,117.1000976562500000,21.5551395416259770,29.8858394622802730,115,118,90,81,61,15167,2149686253,2151443611,2154780388,2147932946,2148303643,2149136173,2151005220,2147436452,304,2,15,41720
1379372298,5807,127.8499984741211000,21.6968994140625000,35.2401008605957000,224.3153076171875000,113.0690002441406200,21.6789207458496100,29.7832202911376950,116,120,85,82,62,15169,2150121636,2152131346,2155796086,2147954038,2148465755,2149448832,2151406884,2147470189,299,1,15,51978
1379372415,5806,124.0599975585937500,21.8334007263183600,35.2458992004394500,225.7068023681640600,108.5513992309570300,21.8176898956298830,29.6562690734863280,122,121,88,82,60,15160,2150591149,2152869366,2156884278,2147976137,2148629558,2149745005,2151795154,2147506276,3220,2,15,29321
1379372614,5808,120.5800018310546900,21.9123992919921880,35.2472000122070300,223.8894042968750000,105.7611999511718800,21.9034309387207030,29.7098503112792970,129,122,89,82,60,15155,2151113435,2153684864,2158104813,2147998893,2148804690,2150050514,2152195638,2147543314,2927,2,16,31449
1379372813,5809,116.1299972534179700,22.2749004364013670,35.2793006896972660,226.0653076171875000,94.0620727539062500,22.2632293701171880,29.4519100189209000,137,123,89,83,61,15149,2152501348,2155707026,2160685622,2148045952,2149301549,2150839661,2153119168,2147632155,2071,2,16,34480
1379372952,5811,112.3000030517578100,22.4349002838134770,35.2943000793457000,229.0664978027343800,88.8389205932617200,22.4240093231201170,29.2395992279052730,151,125,89,82,59,15134,2154064310,2157856448,2163256841,2148103186,2149870345,2151699291,2154074011,2147726619,1731,2,15,63116
1379373084,5806,107.9300003051757800,22.7390003204345700,35.3212013244628900,231.7357025146484400,79.2727432250976600,22.7187500000000000,28.9904594421386720,129,122,88,84,59,15135,2156701659,2161406381,2167165028,2148194276,2150857060,2153119808,2155580800,2147875812,1831,2,15,52038
1379373199,5809,103.9400024414062500,22.9932994842529300,35.3485984802246100,235.1963958740234400,70.7073364257812500,22.9829406738281250,28.7202796936035160,105,120,91,84,59,15144,2159674093,2165257078,2171409828,2148306093,2152112530,2154906870,2157401188,2148051574,1239,1,15,59166
1379373343,5810,98.1900024414062500,23.1942005157470700,35.3655014038085940,238.1723937988281200,64.1788330078125000,23.1845092773437500,28.5013599395751950,97,121,88,83,59,15138,2164834130,2171442669,2177695753,2148532973,2154485732,2158095314,2160489993,2148351579,3472,1,15,12855
1379373398,5810,95.1699981689453100,23.4916000366210940,35.3693008422851560,239.2760009765625000,54.4539184570312500,23.4851207733154300,28.3297100067138670,89,122,89,83,57,15143,2167566198,2174822345,2181052736,2148666779,2155878829,2159909558,2162145380,2148517732,2495,2,15,49970
1379373453,5809,92.6800003051757800,23.6163005828857420,35.3588981628418000,239.9954986572265600,50.7600784301757800,23.5993995666503900,28.2510395050048830,83,122,90,83,58,15140,2169913380,2177455515,2183391780,2148801078,2157312566,2161744173,2163708196,2148678418,1848,1,16,21162
1379373508,5807,90.3899993896484400,23.8577995300292970,35.3754005432128900,240.1071014404297000,45.5907287597656250,23.7594509124755860,28.1816997528076170,80,124,89,83,57,15132,2173159652,2181567350,2187895826,2149013138,2158988132,2163961545,2165683629,2148880402,1829,2,15,22487
1379373563,5809,88.4599990844726600,23.8962001800537100,35.3815002441406250,241.3206939697265600,42.0742111206054700,23.8683891296386720,28.0837192535400400,81,125,87,84,58,15133,2174881865,2183192402,2189210304,2149111168,2160120996,2165320996,2166848219,2148987931,2398,1,16,63336
1379373620,5805,86.6200027465820300,23.9726009368896500,35.3833007812500000,243.6226959228515600,39.1707916259765600,23.9583892822265620,27.9457092285156250,76,127,89,83,57,15138,2177213120,2185555282,2191303149,2149275108,2161498020,2166909915,2168064109,2149111780,2733,1,16,33541
1379373675,5808,84.8099975585937500,24.0825004577636720,35.3802986145019500,244.6123962402343800,37.5928993225097660,24.0073204040527340,27.8825397491455080,77,131,90,85,56,15134,2180985115,2190167890,2196339291,2149510784,2163517906,2169511881,2170379062,2149347785,2691,2,16,51125
1379373730,5808,83.1999969482421900,24.1310997009277340,35.3795013427734400,244.7402954101562500,34.1974487304687500,24.1126403808593750,27.8351097106933600,75,123,89,86,58,15134,2182917257,2192033929,2198088813,2149663168,2164775862,2171016137,2171633554,2149477211,3109,1,16,51207
1379373809,5808,81.3700027465820300,24.2476005554199220,35.3736991882324200,244.8990020751953000,30.5783500671386720,24.2249698638916000,27.7835693359375000,75,124,91,83,58,15127,2185425965,2194586230,2200414025,2149858560,2166501952,2173113225,2173373037,2149679003,3353,1,16,25654
1379373954,5807,79.3000030517578100,24.3502006530761720,35.3825988769531250,246.3643951416015600,26.7111301422119140,24.3450698852539060,27.6721496582031250,74,126,94,84,57,15128,2189590464,2199226395,2204599058,2150182976,2169421385,2176447250,2175896950,2149935606,2197,1,16,42886
1379374033,5807,77.4000015258789000,24.4676990509033200,35.3830986022949200,247.0717010498047000,22.6872291564941400,24.4701309204101560,27.5920104980468750,72,126,90,85,56,15116,2195187574,2205797010,2211777234,2150675748,2172989814,2180710070,2179142272,2150291382,1556,1,16,59287
1379374148,5808,75.8700027465820300,24.7198009490966800,35.3843994140625000,248.7812957763672000,14.8764600753784180,24.7131099700927730,27.4231090545654300,70,129,91,86,57,15113,2198001499,2207624109,2212452672,2150765906,2176320640,2184486555,2181871725,2150512603,604,1,16,45362
1379374304,5807,72.5800018310546900,24.7432003021240230,35.3855018615722660,250.1790924072265600,13.8194198608398440,24.7460193634033200,27.3506507873535160,67,127,92,85,58,15100,2210041563,2219753929,2223859218,2151873069,2184793426,2193788608,2188728859,2151250166,3537,2,16,30667
1379374359,5811,69.6800003051757800,24.9528007507324220,35.3835983276367200,249.9761962890625000,7.5679512023925780,24.9407691955566400,27.2829494476318360,66,128,94,86,53,15101,2220209408,2230209600,2233900260,2152915830,2192066898,2201910381,2195013915,2151966308,901,2,16,61322
1379374414,5810,66.7500000000000000,25.1662998199462900,35.3861999511718750,249.5738067626953000,1.6930550336837769,25.1240005493164060,27.2285900115966800,63,130,93,86,56,15099,2210600320,2215998418,2215908068,2152049691,2188682002,2195964973,2188730770,2151283419,3383,1,16,23375
1379374469,5803,64.2399978637695300,25.4797992706298830,35.3885002136230500,249.1475067138672000,-8.6311874389648440,25.4464893341064450,27.1211299896240230,65,130,91,86,55,15094,2235388891,2245739328,2248267968,2155009398,2203295149,2213436617,2203289874,2153100736,2239,1,16,13199
1379374524,5806,62.5099983215332000,25.5291004180908200,35.3919982910156250,249.6714935302734400,-10.4807100296020500,25.5043296813964840,27.0765495300292970,65,128,92,87,58,15102,2239057334,2248700150,2250553005,2155533046,2206321097,2216341851,2205146432,2153356754,1479,1,16,21447
1379374608,5810,59.7999992370605500,25.6254997253417970,35.3903999328613300,249.8583068847656200,-13.7964096069335940,25.6080703735351560,27.0284900665283200,65,129,92,88,56,15071,2250295990,2260239652,2261814217,2157488384,2215252498,2225640192,2212082176,2154357394,2016,1,16,44641
1379374663,5806,57.4300003051757800,25.8391990661621100,35.3914985656738300,249.3410949707031200,-20.2262802124023440,25.8094501495361330,26.9723091125488280,64,130,93,87,56,15096,2257771236,2267707172,2269011017,2158816164,2222146011,2232751515,2217307273,2155087698,2020,1,16,16577
1379374718,5806,56.2500000000000000,25.8948001861572270,35.3931999206543000,249.6262969970703000,-22.5306606292724600,25.8816795349121100,26.9325008392334000,63,131,94,86,57,15086,2265279323,2275198482,2276471076,2160376128,2229308352,2240514880,2223198893,2155843318,2317,1,16,20583
1379374958,5804,54.1199989318847660,26.8253993988037100,35.4095993041992200,244.2716064453125000,-50.6397018432617200,26.7656898498535160,26.8204193115234380,62,129,93,85,55,15088,2273447085,2282000850,2281457453,2161654601,2234952502,2244868205,2224914368,2156129408,2558,2,17,53637
1379375049,5808,52.6300010681152340,27.0340003967285160,35.4247016906738300,242.0072021484375000,-56.3455390930175800,26.9458103179931640,26.8491191864013670,60,129,90,87,58,15090,2279508580,2286985042,2285636845,2162524635,2241535497,2251390043,2229601865,2156680018,2510,2,16,3783
1379375253,5805,50.4300003051757800,27.3983001708984380,35.4166984558105500,236.8054962158203000,-70.1209869384765600,27.3816604614257800,26.9102592468261720,58,131,92,86,58,15076,2291219968,2296322267,2293875794,2164914432,2251282459,2261793024,2237761325,2158053915,3302,1,17,60536
1379375416,5817,48.7599983215332000,27.4827003479003900,35.4161987304687500,234.7035064697265600,-73.6239471435546900,27.4927291870117200,26.9612693786621100,58,137,91,86,53,15074,2298103296,2302393737,2299279716,2166340160,2254671478,2264712493,2239699638,2158467008,3561,1,16,54497
1379375583,5820,46.2999992370605500,27.6142005920410160,35.3936996459960940,232.4763946533203000,-77.5959091186523400,27.6187801361084000,27.0129909515380860,59,129,93,87,58,15065,2320961005,2324800210,2319314148,2171207890,2273308937,2282505408,2251654637,2160528969,1860,0,16,15814
1379375674,5809,44.6199989318847660,27.7908992767334000,35.3249015808105500,229.2169036865234400,-82.9427795410156200,27.7886600494384770,27.0962791442871100,58,129,91,85,54,15077,2329545060,2332012269,2325311826,2173784685,2283154971,2290271122,2255889289,2161576237,1640,0,17,22215
1379375842,5807,41.9199981689453100,27.8526992797851560,35.2748985290527340,225.9111022949218800,-85.1928787231445300,27.8602104187011720,27.2215690612792970,56,121,89,84,52,15091,2346374308,2346902701,2340338121,2179739245,2308022409,2313107328,2271740388,2164234358,909,1,16,21784
1379375897,5804,39.9599990844726560,27.8549003601074220,35.2710990905761700,224.9918975830078000,-85.3949813842773400,27.8666400909423830,27.2620906829834000,55,122,89,85,56,15087,2363836891,2365604416,2359361225,2185256356,2321111844,2323546102,2277691830,2165576438,647,0,16,14814
1379375952,5810,37.9399986267089840,27.8584995269775400,35.2705993652343750,224.4104003906250000,-85.5584335327148400,27.8718490600585940,27.2874507904052730,54,121,90,83,56,15105,2370188388,2371033792,2366040347,2191131446,2340720877,2340447195,2288451181,2168114706,601,1,16,35553
1379376007,5810,35.8600006103515600,27.8607006072998050,35.2711982727050800,224.2500000000000000,-85.7447128295898400,27.8777694702148440,27.2926006317138670,53,121,91,82,54,15107,2382152448,2382606473,2378127780,2196744566,2358759890,2355432539,2297653412,2169942290,361,1,16,9634
1379376062,5806,33.7200012207031250,27.8635997772216800,35.2708015441894500,224.1430969238281200,-85.7939834594726600,27.8793392181396500,27.2969398498535160,54,121,92,84,55,15109,2385139492,2383024091,2376712173,2199710326,2379726409,2373051584,2308060388,2172190793,195,1,16,24069
1379376146,5805,29.7199993133544920,27.8687000274658200,35.2700996398925800,224.2718048095703000,-85.8860168457031200,27.8822708129882800,27.2897891998291000,51,120,89,83,56,15102,2414219913,2413977261,2410947840,2221237915,2419811236,2406317677,2328788288,2177557915,3247,1,16,49909
1379376201,5808,26.5400009155273440,27.8763008117675780,35.2705001831054700,224.3213043212890600,-86.1551971435546900,27.8908290863037100,27.2842597961425780,52,119,89,84,53,15108,2443010934,2445050852,2444602953,2243122633,2454667053,2435355940,2346588745,2182307035,3036,0,17,46612